Weather in Dubai

United Arab Emirates     25°11′42″N   55°16′42″E
temp.,
°C
wind,
m/s
gust,
m/s
humid.,
%
clouds,
%
prec.,
mm/h
press.,
hPa
HPBL,
m
5 december, sun
sun501:00+24wnw335235 0.0 10171027
04:00+23nw025349 0.0 1016960
07:00+21sse33685 0.0 1018173
10:00+23sse22570 0.0 1019367
13:00+24nw32550 0.0 1017598
16:00+24nw44570 0.0 1016549
19:00+24nnw44562 0.0 1017619
22:00+24nne225688 0.0 1018715
6 december, mon
mon601:00+22se216428 0.0 1017192
04:00+21s11685 0.0 1017198
07:00+22s22655 0.0 1018503
10:00+24ssw32590 0.0 1019688
13:00+24w54550 0.0 1017931
16:00+24w55544 0.0 10161059
19:00+24w445638 0.0 1017833
22:00+24w345611 0.0 1017786
7 december, tue
tue701:00+23w33560 0.0 1017793
04:00+23w23560 0.0 1016812
07:00+23wsw13560 0.0 1018811
10:00+24ssw12530 0.0 1020591
13:00+25nw33480 0.0 10181037
16:00+25n33480 0.0 1017997
19:00+25nne34535 0.0 1018657
22:00+24ene44605 0.0 1018434
8 december, wed
wed801:00+23ene33650 0.0 1018272
04:00+22ene34670 0.0 1018234
07:00+22ene446913 0.0 1019218
10:00+25e344898 0.0 1021421
13:00+27nne4541100 0.0 1018590
16:00+27n45440 0.0 1017896
19:00+25ene56490 0.0 1018429
22:00+23e67440 0.0 1019242
9 december, thu
thu901:00+22e56430 0.0 1018168
04:00+22e45430 0.0 1018153
07:00+22e44444 0.0 1019149
10:00+25ese34341 0.0 1021354
13:00+26nnw33330 0.0 1018547
16:00+26nnw44430 0.0 1017406
19:00+25n55520 0.0 1019428
22:00+25ne44480 0.0 1020450